Weather Roundup
Issued by NWS

Home | Current Version | Previous Version | Graphics & Text | Print | Product List | Glossary Off
Versions: 1 2 3 4 5 6 7 8 9 10 11 12 13 14 15 16 17 18 19 20 21 22 23 24 25 26 27 28 29 30 31 32 33 34 35 36 37 38 39 40 41 42 43 44 45 46 47 48 49 50

000
NZUS93 KARX 212310
HRRWXR

CURRENT HOURLY OBSERVATIONS ACROSS
MUCH OF THE UPPER MISSISSIPPI VALLEY
NATIONAL WEATHER SERVICE LA CROSSE WI
600 PM CDT THU AUG 21 2014


...SOUTHEAST MINNESOTA...


CITY           SKY/WX    TMP DP  RH WIND       PRES   REMARKS
ROCHESTER      CLOUDY    82  73  74 S9        29.86R
ROCHESTER/MAYO FAIR      83  70  64 S9G16     29.85R
WINONA         SUNNY     81  70  69 CALM      29.84S
AUSTIN         MOSUNNY   84  72  65 SW9       29.84S
ALBERT LEA     MOSUNNY   84  70  61 SW8       29.84R
DODGE CENTER   PTSUNNY   82  75  78 S7        29.85R
PRESTON        MOSUNNY   81  76  87 S12       29.88R
OWATONNA       MOSUNNY   84  73  70 S9        29.82S HX  91
FARIBAULT      MOSUNNY   88  70  55 CALM      29.81S HX  92
$$

...ELSEWHERE IN MINNESOTA...


CITY           SKY/WX    TMP DP  RH WIND       PRES   REMARKS
MINNEAPOLIS    MOSUNNY   83  73  72 NE7       29.79S
INTNL FALLS    CLOUDY    68  62  81 E12       29.90R
DULUTH         CLOUDY    65  60  84 E9        29.90R
RED WING       PTSUNNY   84  73  70 SE6       29.79S HX  91
REDWOOD FALLS  MOSUNNY   84  73  69 N7        29.81R HX  90
MANKATO        PTSUNNY   84  72  65 SW6       29.80R
WORTHINGTON    MOSUNNY   88  27  11 W9        29.85R
FAIRMONT       PTSUNNY   86  72  62 MISG      29.82S HX  92
$$

...SOUTHWEST WISCONSIN...


CITY           SKY/WX    TMP DP  RH WIND       PRES   REMARKS
LA CROSSE      MOSUNNY   83  72  69 SE12      29.85R
PRAIRIE DU CHI CLOUDY    78  71  76 S3        29.88R
BOSCOBEL       MOSUNNY   81  71  71 S6        29.89R
LONE ROCK      PTSUNNY   85  73  67 SW5       29.88R HX  91
PLATTEVILLE    PTSUNNY   75  73  92 S8        29.89F
FORT MC COY    MOSUNNY   80  69  68 S5        29.88S
CAMP DOUGLAS   PTSUNNY   77  75  94 SE6       29.90R
VIROQUA        MOCLDY    80  74  83 S6        29.90R
WIS DELLS      CLOUDY    76  70  82 SE3       29.90R
$$

...ELSEWHERE IN WISCONSIN...


CITY           SKY/WX    TMP DP  RH WIND       PRES   REMARKS
MILWAUKEE      PTSUNNY   77  69  76 S5        29.91F
MADISON        PTSUNNY   77  71  82 S8        29.90R
GREEN BAY      CLOUDY    71  65  81 E6        29.94S
EAU CLAIRE     CLOUDY    78  71  79 S9        29.84S
BLACK RVR FLS  CLOUDY    78  71  78 SE5       29.87R
MEDFORD        CLOUDY    68  66  93 E7        29.91F
WAUSAU         CLOUDY    69  66  90 E9        29.91F FOG
WIS RAPIDS     PTSUNNY   77  70  79 SE7       29.91S
MARSHFIELD     PTSUNNY   77  70  79 S10       29.90S
RICE LAKE      LGT RAIN  74  68  82 E6        29.87F
$$

...NORTHEAST IOWA...


CITY           SKY/WX    TMP DP  RH WIND       PRES   REMARKS
WATERLOO       MOSUNNY   83  71  67 S17       29.86R
DUBUQUE        CLOUDY    75  72  90 S12       29.88F
DECORAH        MOSUNNY   81  73  78 S7        29.88R
MASON CITY     MOSUNNY   86  72  62 S10       29.87R HX  92
CHARLES CITY   MOSUNNY   82  73  74 S8G16     29.87S
OELWEIN        MOSUNNY   79  72  78 S13       29.90R
$$

...ELSEWHERE IN IOWA...


CITY           SKY/WX    TMP DP  RH WIND       PRES   REMARKS
DES MOINES     MOSUNNY   87  74  64 S12       29.85S HX  95
IOWA CITY      PTSUNNY   82  75  79 S10       29.89S
FORT DODGE     PTSUNNY   84  73  70 SW9       29.85S HX  91
MARSHALLTOWN   SUNNY     84  74  71 S9G18     29.86R HX  91
CEDAR RAPIDS   PTSUNNY   80  75  84 S10       29.87S
$$

...NORTHERN ILLINOIS...


CITY           SKY/WX    TMP DP  RH WIND       PRES   REMARKS
CHICAGO-OHARE  PTSUNNY   76  71  85 SE10      29.90F
DUPAGE         PTSUNNY   78  74  87 SE5       29.90F
CHICAGO-MIDWAY CLOUDY    78  75  90 SE9       29.90F
MOLINE         PTSUNNY   81  74  79 SE5       29.90S
ROCKFORD       PTSUNNY   78  73  84 SW8       29.91R
STERLING       CLOUDY    79  73  83 W3        29.90S
PEORIA         CLOUDY    88  75  65 S7        29.92F HX  97
$$

NOTE: "FAIR" INDICATES FEW OR NO CLOUDS BELOW 12,000 FEET WITH NO
SIGNIFICANT WEATHER AND/OR OBSTRUCTIONS TO VISIBILITY. WIND
SPEEDS ARE IN MILES-PER-HOUR.



USA.gov is the U.S. government's official web portal to all federal, state and local government web resources and services.